Knoxville, TN

8:09 AM EDT on April 25, 2017 (GMT -0400)
McGhee Tyson

Weather History for KTYS - October, 2010

Change the Weather History Date:

Monday, October 11, 2010

  Actual Average Record
Temperature  
Mean Temperature 67 °F 61 °F  
Max Temperature 84 °F 73 °F 86 °F (1954)
Min Temperature 50 °F 50 °F 28 °F (1906)
Degree Days  
Heating Degree Days 0 5  
Month to date heating degree days 51 41  
Since 1 July heating degree days 55 64  
Cooling Degree Days 2 1  
Month to date cooling degree days 3 22  
Year to date cooling degree days 2013 1509  
Growing Degree Days 16 (Base 50)    
Moisture  
Dew Point 52 °F    
Average Humidity 66    
Maximum Humidity 100    
Minimum Humidity 31    
Precipitation  
Precipitation 0.00 in 0.07 in 1.27 in (1888)
Month to date precipitation T 0.89  
Year to date precipitation 32.88 37.73  
Snow  
Snow 0.00 in 0.00 in - ()
Month to date snowfall 0.0 0.0  
Since 1 July snowfall 0.0 0.0  
Since 1 September snowfall 0.0 0.0  
Snow Depth 0.00 in    
Sea Level Pressure  
Sea Level Pressure 29.94 in    
Wind  
Wind Speed 2 mph (North)    
Max Wind Speed 10 mph    
Max Gust Speed 13 mph    
Visibility 7 miles    
Events Fog    
T = Trace of Precipitation, MM = Missing Value Source: NWS Daily Summary

Daily Weather History Graph

Daily Weather History Graph

Search for Another Location

Airport or City:

Trip Planner

Search our weather history database for the weather conditions in past years. The results will help you decide how hot, cold, wet, or windy it might be!

Date:

Astronomy

Oct. 11, 2010 Rise Set
Actual Time 7:39 AM EDT 7:05 PM EDT
Civil Twilight 7:13 AM EDT 7:31 PM EDT
Nautical Twilight 6:43 AM EDT 8:00 PM EDT
Astronomical Twilight 6:14 AM EDT 8:30 PM EDT
Moon 12:03 PM EDT (10/11) 9:52 PM EDT (10/11)
Length of Visible Light 12h 17m
Length of Day
11h 26m
Waxing Crescent, 19% of the Moon is Illuminated
Oct 11
Waxing Crescent
Oct 14
First Quarter
Oct 22
Full
Oct 30
Last Quarter
Nov 6
New

Hourly Weather History & Observations

Time (EDT) Temp. Heat Index Dew Point Humidity Pressure Visibility Wind Dir Wind Speed Gust Speed Precip Events Conditions
12:53 AM 60.1 °F - 53.1 °F 78% 29.95 in 10.0 mi Calm Calm - N/A   Clear
1:53 AM 57.0 °F - 53.1 °F 87% 29.95 in 10.0 mi Calm Calm - N/A   Clear
2:53 AM 55.0 °F - 52.0 °F 89% 29.95 in 10.0 mi Calm Calm - N/A   Clear
3:53 AM 53.1 °F - 50.0 °F 89% 29.94 in 10.0 mi ENE 3.5 mph - N/A   Clear
4:53 AM 55.0 °F - 52.0 °F 89% 29.94 in 10.0 mi Calm Calm - N/A   Clear
5:53 AM 52.0 °F - 50.0 °F 93% 29.95 in 10.0 mi Calm Calm - N/A   Clear
6:00 AM 51.8 °F - 50.0 °F 94% 29.97 in 5.0 mi Calm Calm - N/A   Scattered Clouds
6:53 AM 52.0 °F - 51.1 °F 97% 29.96 in 7.0 mi Calm Calm - N/A   Partly Cloudy
7:14 AM 51.8 °F - 50.0 °F 94% 29.98 in 3.0 mi Calm Calm - N/A   Mostly Cloudy
7:16 AM 51.8 °F - 50.0 °F 94% 29.99 in 0.8 mi Calm Calm - N/A   Mostly Cloudy
7:21 AM 51.8 °F - 50.0 °F 94% 29.99 in 2.0 mi Calm Calm - N/A   Mostly Cloudy
7:25 AM 51.8 °F - 51.8 °F 100% 29.99 in 0.5 mi Calm Calm - N/A Fog Fog
7:27 AM 51.8 °F - 51.8 °F 100% 29.98 in 0.1 mi NNE 3.5 mph - N/A Fog Fog
7:35 AM 51.8 °F - 50.0 °F 94% 29.98 in 0.1 mi NE 3.5 mph - N/A Fog Fog
7:42 AM 51.8 °F - 51.8 °F 100% 29.98 in 0.8 mi NNE 3.5 mph - N/A   Mostly Cloudy
7:48 AM 51.8 °F - 50.0 °F 94% 29.98 in 1.5 mi NE 3.5 mph - N/A   Scattered Clouds
7:53 AM 51.1 °F - 51.1 °F 100% 29.96 in 1.5 mi Calm Calm - N/A   Scattered Clouds
7:55 AM 51.8 °F - 51.8 °F 100% 29.98 in 2.0 mi NE 3.5 mph - N/A   Scattered Clouds
8:08 AM 51.8 °F - 51.8 °F 100% 29.98 in 3.0 mi Calm Calm - N/A   Partly Cloudy
8:53 AM 54.0 °F - 53.1 °F 97% 29.97 in 6.0 mi Calm Calm - N/A   Partly Cloudy
9:53 AM 61.0 °F - 55.9 °F 83% 29.98 in 10.0 mi Calm Calm - N/A   Clear
10:53 AM 66.9 °F - 55.9 °F 68% 29.97 in 10.0 mi NE 3.5 mph - N/A   Clear
11:53 AM 72.0 °F - 57.0 °F 59% 29.96 in 10.0 mi Calm Calm - N/A   Clear
12:53 PM 78.1 °F - 55.0 °F 45% 29.95 in 10.0 mi West 5.8 mph - N/A   Partly Cloudy
1:53 PM 79.0 °F - 55.9 °F 45% 29.93 in 10.0 mi Variable 3.5 mph - N/A   Partly Cloudy
2:53 PM 81.0 °F 80.8 °F 55.9 °F 42% 29.90 in 10.0 mi NW 6.9 mph - N/A   Partly Cloudy
3:53 PM 82.9 °F - 48.9 °F 31% 29.88 in 10.0 mi West 10.4 mph - N/A   Partly Cloudy
4:53 PM 82.0 °F - 50.0 °F 33% 29.86 in 10.0 mi SW 6.9 mph - N/A   Partly Cloudy
5:53 PM 81.0 °F - 48.9 °F 33% 29.86 in 10.0 mi SW 6.9 mph - N/A   Partly Cloudy
6:53 PM 78.1 °F - 46.9 °F 33% 29.87 in 10.0 mi SSW 3.5 mph - N/A   Partly Cloudy
7:53 PM 75.9 °F - 46.0 °F 35% 29.87 in 10.0 mi Calm Calm - N/A   Clear
8:53 PM 69.1 °F - 48.9 °F 49% 29.89 in 10.0 mi Calm Calm - N/A   Clear
9:53 PM 66.0 °F - 51.1 °F 59% 29.89 in 10.0 mi Calm Calm - N/A   Clear
10:53 PM 64.0 °F - 52.0 °F 65% 29.90 in 10.0 mi Calm Calm - N/A   Clear
11:53 PM 61.0 °F - 52.0 °F 72% 29.90 in 10.0 mi Calm Calm - N/A   Clear